When you browse on this site, cookies collect data to enhance your experience and personalize the content and advertising you see.
Visit our Privacy Policy to learn more. By continuing to use the site, you agree to this use of cookies and data.
  • In United Kingdom
  • List of Countries
  • For 7 days
  • Water Temperature
  • Weather Map
  • Weather Widgets
  • user-avatar
    Login

    Hourly Weather Santa Fe

    Today, 21 August, Wednesday

    Time Temperature Precipitation Wind Pressure Humidity
    00:00 +19°C° 0 mm 1 mps 592 mmHg 55%
    01:00 +19°C° 0 mm 1 mps 592 mmHg 55%
    02:00 +19°C° 0 mm 1 mps 592 mmHg 56%
    03:00 +18°C° 0 mm 1 mps 591 mmHg 58%
    04:00 +18°C° 0 mm 1 mps 591 mmHg 60%
    05:00 +15°C° 0 mm 0 mps 591 mmHg 63%
    06:00 +19°C° 0 mm 1 mps 592 mmHg 57%
    07:00 +21°C° 0 mm 1 mps 593 mmHg 51%
    08:00 +23°C° 0 mm 1 mps 593 mmHg 45%
    09:00 +25°C° 0 mm 2 mps 594 mmHg 40%
    10:00 +27°C° 0 mm 2 mps 594 mmHg 35%
    11:00 +28°C° 0 mm 3 mps 594 mmHg 30%
    12:00 +29°C° 0.1 mm 5 mps 594 mmHg 30%
    13:00 +29°C° 0.1 mm 6 mps 594 mmHg 30%
    14:00 +29°C° 0.1 mm 8 mps 594 mmHg 29%
    15:00 +28°C° 0.2 mm 7 mps 594 mmHg 30%
    16:00 +28°C° 0.2 mm 5 mps 594 mmHg 30%
    17:00 +27°C° 0.2 mm 4 mps 594 mmHg 30%
    18:00 +23°C° 0.2 mm 4 mps 593 mmHg 40%
    19:00 +21°C° 0.2 mm 3 mps 592 mmHg 50%
    20:00 +18°C° 0.2 mm 3 mps 592 mmHg 59%
    21:00 +18°C° 0.1 mm 3 mps 591 mmHg 64%
    22:00 +17°C° 0.1 mm 3 mps 591 mmHg 68%
    23:00 +17°C° 0.1 mm 2 mps 591 mmHg 72%

    Tomorrow, 22 August, Thursday

    Time Temperature Precipitation Wind Pressure Humidity
    00:00 +16°C° 0 mm 2 mps 590 mmHg 72%
    01:00 +16°C° 0 mm 1 mps 590 mmHg 72%
    02:00 +16°C° 0 mm 1 mps 589 mmHg 73%
    03:00 +16°C° 0 mm 1 mps 589 mmHg 72%
    04:00 +16°C° 0 mm 1 mps 589 mmHg 71%
    05:00 +15°C° 0 mm 1 mps 589 mmHg 70%
    06:00 +18°C° 0 mm 1 mps 590 mmHg 64%
    07:00 +20°C° 0 mm 1 mps 590 mmHg 58%
    08:00 +21°C° 0 mm 1 mps 591 mmHg 52%
    09:00 +23°C° 0 mm 2 mps 591 mmHg 46%
    10:00 +25°C° 0 mm 3 mps 592 mmHg 41%
    11:00 +26°C° 0 mm 3 mps 592 mmHg 35%
    12:00 +27°C° 0 mm 4 mps 592 mmHg 31%
    13:00 +28°C° 0 mm 5 mps 592 mmHg 28%
    14:00 +29°C° 0 mm 6 mps 592 mmHg 24%
    15:00 +29°C° 0 mm 5 mps 592 mmHg 23%
    16:00 +29°C° 0 mm 3 mps 592 mmHg 22%
    17:00 +28°C° 0 mm 1 mps 592 mmHg 20%
    18:00 +26°C° 0 mm 2 mps 591 mmHg 27%
    19:00 +23°C° 0 mm 2 mps 590 mmHg 34%
    20:00 +20°C° 0 mm 3 mps 590 mmHg 41%
    21:00 +19°C° 0 mm 2 mps 590 mmHg 44%
    22:00 +19°C° 0 mm 2 mps 590 mmHg 47%
    23:00 +18°C° 0 mm 2 mps 589 mmHg 50%

    Day after tomorrow, 23 August, Friday

    Time Temperature Precipitation Wind Pressure Humidity
    00:00 +19°C° 0 mm 1 mps 589 mmHg 54%
    01:00 +18°C° 0 mm 1 mps 589 mmHg 57%
    02:00 +18°C° 0 mm 1 mps 589 mmHg 61%
    03:00 +18°C° 0 mm 1 mps 589 mmHg 62%
    04:00 +16°C° 0 mm 1 mps 589 mmHg 63%
    05:00 +16°C° 0 mm 1 mps 588 mmHg 64%
    06:00 +19°C° 0 mm 1 mps 589 mmHg 57%
    07:00 +20°C° 0 mm 2 mps 590 mmHg 50%
    08:00 +21°C° 0 mm 2 mps 591 mmHg 42%
    09:00 +24°C° 0 mm 3 mps 592 mmHg 36%
    10:00 +26°C° 0 mm 3 mps 593 mmHg 29%
    11:00 +28°C° 0 mm 4 mps 593 mmHg 22%
    12:00 +28°C° 0 mm 4 mps 593 mmHg 21%
    13:00 +28°C° 0 mm 5 mps 593 mmHg 21%
    14:00 +29°C° 0 mm 6 mps 592 mmHg 21%
    15:00 +28°C° 0 mm 5 mps 592 mmHg 21%
    16:00 +28°C° 0 mm 3 mps 592 mmHg 20%
    17:00 +28°C° 0 mm 2 mps 592 mmHg 20%
    18:00 +26°C° 0 mm 2 mps 592 mmHg 24%
    19:00 +24°C° 0 mm 3 mps 591 mmHg 28%
    20:00 +21°C° 0 mm 3 mps 591 mmHg 32%
    21:00 +21°C° 0 mm 3 mps 591 mmHg 34%
    22:00 +20°C° 0 mm 2 mps 591 mmHg 35%
    23:00 +19°C° 0 mm 2 mps 591 mmHg 37%

    24 August, Saturday

    Time Temperature Precipitation Wind Pressure Humidity
    00:00 +19°C° 0 mm 2 mps 590 mmHg 37%
    01:00 +19°C° 0 mm 2 mps 590 mmHg 37%
    02:00 +18°C° 0 mm 2 mps 590 mmHg 38%
    03:00 +18°C° 0 mm 2 mps 590 mmHg 39%
    04:00 +17°C° 0 mm 2 mps 590 mmHg 41%
    05:00 +17°C° 0 mm 2 mps 590 mmHg 43%
    06:00 +19°C° 0 mm 2 mps 591 mmHg 39%
    07:00 +21°C° 0 mm 3 mps 592 mmHg 34%
    08:00 +24°C° 0 mm 3 mps 593 mmHg 30%
    09:00 +26°C° 0 mm 3 mps 593 mmHg 28%
    10:00 +27°C° 0 mm 4 mps 594 mmHg 25%
    11:00 +29°C° 0 mm 4 mps 594 mmHg 22%
    12:00 +29°C° 0 mm 4 mps 594 mmHg 21%
    13:00 +30°C° 0 mm 4 mps 594 mmHg 20%
    14:00 +32°C° 0 mm 4 mps 594 mmHg 19%
    15:00 +30°C° 0 mm 4 mps 593 mmHg 20%
    16:00 +30°C° 0 mm 4 mps 593 mmHg 21%
    17:00 +30°C° 0 mm 4 mps 592 mmHg 22%
    18:00 +28°C° 0 mm 3 mps 592 mmHg 24%
    19:00 +26°C° 0 mm 3 mps 591 mmHg 27%
    20:00 +23°C° 0 mm 2 mps 591 mmHg 30%
    21:00 +23°C° 0 mm 2 mps 591 mmHg 30%
    22:00 +21°C° 0 mm 2 mps 591 mmHg 31%
    23:00 +21°C° 0 mm 2 mps 591 mmHg 31%

    25 August, Sunday

    Time Temperature Precipitation Wind Pressure Humidity
    00:00 +20°C° 0 mm 2 mps 590 mmHg 32%
    01:00 +20°C° 0 mm 2 mps 590 mmHg 32%
    02:00 +20°C° 0 mm 2 mps 590 mmHg 32%
    03:00 +19°C° 0 mm 2 mps 590 mmHg 33%
    04:00 +19°C° 0 mm 2 mps 590 mmHg 33%
    05:00 +19°C° 0 mm 2 mps 590 mmHg 33%
    06:00 +21°C° 0 mm 3 mps 591 mmHg 30%
    07:00 +24°C° 0 mm 3 mps 592 mmHg 27%
    08:00 +26°C° 0 mm 4 mps 593 mmHg 24%
    09:00 +28°C° 0 mm 4 mps 594 mmHg 22%
    10:00 +29°C° 0 mm 4 mps 594 mmHg 20%
    11:00 +32°C° 0 mm 4 mps 594 mmHg 17%
    12:00 +33°C° 0 mm 4 mps 594 mmHg 16%
    13:00 +33°C° 0 mm 4 mps 594 mmHg 15%
    14:00 +34°C° 0 mm 4 mps 594 mmHg 14%
    15:00 +34°C° 0 mm 4 mps 593 mmHg 14%
    16:00 +34°C° 0 mm 4 mps 593 mmHg 14%
    17:00 +33°C° 0 mm 3 mps 593 mmHg 14%
    18:00 +30°C° 0 mm 3 mps 592 mmHg 18%
    19:00 +27°C° 0 mm 3 mps 591 mmHg 21%
    20:00 +25°C° 0 mm 2 mps 591 mmHg 24%
    21:00 +24°C° 0 mm 2 mps 590 mmHg 25%
    22:00 +24°C° 0 mm 2 mps 590 mmHg 26%
    23:00 +23°C° 0 mm 2 mps 590 mmHg 27%

    26 August, Monday

    Time Temperature Precipitation Wind Pressure Humidity
    00:00 +23°C° 0 mm 2 mps 590 mmHg 27%
    01:00 +21°C° 0 mm 2 mps 590 mmHg 27%
    02:00 +21°C° 0 mm 2 mps 589 mmHg 27%
    03:00 +21°C° 0 mm 2 mps 589 mmHg 28%
    04:00 +20°C° 0 mm 2 mps 590 mmHg 28%
    05:00 +20°C° 0 mm 2 mps 590 mmHg 29%
    06:00 +23°C° 0 mm 2 mps 591 mmHg 26%
    07:00 +25°C° 0 mm 3 mps 592 mmHg 24%
    08:00 +27°C° 0 mm 3 mps 593 mmHg 21%
    09:00 +29°C° 0 mm 3 mps 593 mmHg 19%
    10:00 +31°C° 0 mm 3 mps 594 mmHg 17%
    11:00 +34°C° 0 mm 3 mps 594 mmHg 15%
    12:00 +34°C° 0 mm 3 mps 594 mmHg 15%
    13:00 +35°C° 0 mm 2 mps 594 mmHg 14%
    14:00 +35°C° 0 mm 2 mps 594 mmHg 14%
    15:00 +35°C° 0 mm 2 mps 593 mmHg 15%
    16:00 +34°C° 0 mm 3 mps 593 mmHg 15%
    17:00 +34°C° 0 mm 3 mps 593 mmHg 16%
    18:00 +31°C° 0 mm 3 mps 592 mmHg 19%
    19:00 +28°C° 0 mm 2 mps 591 mmHg 22%
    20:00 +26°C° 0 mm 2 mps 591 mmHg 26%
    21:00 +25°C° 0 mm 2 mps 591 mmHg 27%
    22:00 +25°C° 0 mm 2 mps 591 mmHg 28%
    23:00 +24°C° 0 mm 1 mps 591 mmHg 29%
    Show more